Time,TemperatureF,DewpointF,PressureIn,WindDirection,WindDirectionDegrees,WindSpeedMPH,WindSpeedGustMPH,Humidity,HourlyPrecipIn,Conditions,Clouds,dailyrainin,SoftwareType,DateUTC
2013-02-28 00:00:00,29.2,29.0,25.76,SSE,157,0.0,0.0,98,0.00,,,0.09,Rainwise IP-100,2013-02-28 08:00:00,
2013-02-28 00:05:00,29.1,29.0,25.76,SSE,157,0.0,0.0,97,0.00,,,0.00,Rainwise IP-100,2013-02-28 08:05:00,
2013-02-28 00:10:00,29.0,29.0,25.77,SSE,157,0.0,0.0,97,0.00,,,0.00,Rainwise IP-100,2013-02-28 08:10:00,
2013-02-28 00:15:00,28.9,29.0,25.76,SSE,157,0.0,0.0,97,0.00,,,0.00,Rainwise IP-100,2013-02-28 08:15:00,
2013-02-28 00:20:00,28.9,29.0,25.77,SSE,157,0.0,1.2,97,0.00,,,0.00,Rainwise IP-100,2013-02-28 08:20:00,
2013-02-28 00:25:00,29.0,29.0,25.77,SSE,157,0.0,0.0,98,0.00,,,0.00,Rainwise IP-100,2013-02-28 08:25:00,
2013-02-28 00:30:00,28.9,29.0,25.77,SSE,157,0.0,0.0,98,0.00,,,0.00,Rainwise IP-100,2013-02-28 08:30:00,
2013-02-28 00:35:00,28.8,29.0,25.76,SSE,157,0.0,1.4,98,0.00,,,0.00,Rainwise IP-100,2013-02-28 08:35:00,
2013-02-28 00:40:00,28.8,29.0,25.76,SSE,157,0.0,1.9,98,0.00,,,0.00,Rainwise IP-100,2013-02-28 08:40:00,
2013-02-28 00:45:00,28.9,29.0,25.76,SSE,157,0.0,1.4,98,0.00,,,0.00,Rainwise IP-100,2013-02-28 08:45:00,
2013-02-28 00:50:00,29.0,29.0,25.77,SSE,157,1.2,1.4,98,0.00,,,0.00,Rainwise IP-100,2013-02-28 08:50:00,
2013-02-28 00:55:00,29.0,29.0,25.76,SSE,157,0.0,1.4,98,0.00,,,0.00,Rainwise IP-100,2013-02-28 08:55:00,
2013-02-28 01:00:00,28.9,29.0,25.77,SSE,157,0.0,0.0,97,0.00,,,0.00,Rainwise IP-100,2013-02-28 09:00:00,
2013-02-28 01:05:00,28.8,29.0,25.76,SSE,157,0.0,0.0,97,0.00,,,0.00,Rainwise IP-100,2013-02-28 09:05:00,
2013-02-28 01:10:00,28.7,29.0,25.76,SSE,157,0.0,1.4,97,0.00,,,0.00,Rainwise IP-100,2013-02-28 09:10:00,
2013-02-28 01:15:00,28.8,29.0,25.76,SSE,157,0.0,0.0,98,0.00,,,0.00,Rainwise IP-100,2013-02-28 09:15:00,
2013-02-28 01:20:00,28.7,29.0,25.76,SSE,157,0.0,0.0,98,0.00,,,0.00,Rainwise IP-100,2013-02-28 09:20:00,
2013-02-28 01:25:00,28.6,29.0,25.76,SSE,157,0.0,0.0,97,0.00,,,0.00,Rainwise IP-100,2013-02-28 09:25:00,
2013-02-28 01:30:00,28.6,29.0,25.76,SSE,157,0.0,0.0,97,0.00,,,0.00,Rainwise IP-100,2013-02-28 09:30:00,
2013-02-28 01:35:00,28.7,29.0,25.76,SSE,157,0.0,0.0,97,0.00,,,0.00,Rainwise IP-100,2013-02-28 09:35:00,
2013-02-28 01:40:00,28.5,29.0,25.76,SSE,157,0.0,0.0,97,0.00,,,0.00,Rainwise IP-100,2013-02-28 09:40:00,
2013-02-28 01:45:00,28.4,28.0,25.76,SSE,157,0.0,0.0,97,0.00,,,0.00,Rainwise IP-100,2013-02-28 09:45:00,
2013-02-28 01:50:00,28.3,28.0,25.76,SSE,157,0.0,0.0,98,0.00,,,0.00,Rainwise IP-100,2013-02-28 09:50:00,
2013-02-28 01:55:00,28.2,28.0,25.76,SSE,157,0.0,0.0,98,0.00,,,0.00,Rainwise IP-100,2013-02-28 09:55:00,
2013-02-28 02:00:00,28.2,28.0,25.76,SSE,157,0.0,0.0,98,0.00,,,0.00,Rainwise IP-100,2013-02-28 10:00:00,
2013-02-28 02:05:00,28.3,28.0,25.75,SSE,157,0.0,1.6,99,0.00,,,0.00,Rainwise IP-100,2013-02-28 10:05:00,
2013-02-28 02:10:00,28.4,28.0,25.75,SSE,157,0.0,0.0,99,0.00,,,0.00,Rainwise IP-100,2013-02-28 10:10:00,
2013-02-28 02:15:00,28.5,29.0,25.75,SSE,157,0.0,0.0,98,0.00,,,0.00,Rainwise IP-100,2013-02-28 10:15:00,
2013-02-28 02:20:00,28.5,29.0,25.75,SSE,157,0.0,0.0,98,0.00,,,0.00,Rainwise IP-100,2013-02-28 10:20:00,
2013-02-28 02:25:00,28.5,29.0,25.75,SSE,157,0.0,0.0,98,0.00,,,0.00,Rainwise IP-100,2013-02-28 10:25:00,
2013-02-28 02:30:00,28.5,29.0,25.75,SSE,157,0.0,0.0,98,0.00,,,0.00,Rainwise IP-100,2013-02-28 10:30:00,
2013-02-28 02:35:00,28.4,28.0,25.75,SSE,157,0.0,0.0,98,0.00,,,0.00,Rainwise IP-100,2013-02-28 10:35:00,
2013-02-28 02:40:00,28.5,29.0,25.75,SSE,157,0.0,0.0,98,0.00,,,0.00,Rainwise IP-100,2013-02-28 10:40:00,
2013-02-28 02:45:00,28.5,29.0,25.75,SSW,202,1.4,0.0,98,0.00,,,0.00,Rainwise IP-100,2013-02-28 10:45:00,
2013-02-28 02:50:00,28.7,29.0,25.75,SSW,202,0.0,2.3,98,0.00,,,0.00,Rainwise IP-100,2013-02-28 10:50:00,
2013-02-28 02:55:00,28.7,29.0,25.74,SSW,202,0.0,0.0,98,0.00,,,0.00,Rainwise IP-100,2013-02-28 10:55:00,
2013-02-28 03:00:00,28.7,29.0,25.74,SSW,202,0.0,0.0,98,0.00,,,0.00,Rainwise IP-100,2013-02-28 11:00:00,
2013-02-28 03:05:00,28.7,29.0,25.74,SSW,202,0.0,0.0,98,0.00,,,0.00,Rainwise IP-100,2013-02-28 11:05:00,
2013-02-28 03:10:00,28.7,29.0,25.74,SSW,202,0.0,0.0,98,0.00,,,0.00,Rainwise IP-100,2013-02-28 11:10:00,
2013-02-28 03:15:00,28.7,29.0,25.75,SSW,202,0.0,0.0,98,0.00,,,0.00,Rainwise IP-100,2013-02-28 11:15:00,
2013-02-28 03:20:00,28.6,29.0,25.75,SSW,202,0.0,0.0,99,0.00,,,0.00,Rainwise IP-100,2013-02-28 11:20:00,
2013-02-28 03:25:00,28.6,29.0,25.74,SSW,202,0.0,0.0,99,0.00,,,0.00,Rainwise IP-100,2013-02-28 11:25:00,
2013-02-28 03:30:00,28.6,29.0,25.75,SSW,202,0.0,0.0,99,0.00,,,0.00,Rainwise IP-100,2013-02-28 11:30:00,
2013-02-28 03:35:00,28.7,29.0,25.74,SSW,202,0.0,0.0,99,0.00,,,0.00,Rainwise IP-100,2013-02-28 11:35:00,
2013-02-28 03:40:00,28.8,29.0,25.74,SSW,202,1.2,1.2,99,0.00,,,0.00,Rainwise IP-100,2013-02-28 11:40:00,
2013-02-28 03:45:00,28.9,29.0,25.74,SSW,202,0.0,1.9,99,0.00,,,0.00,Rainwise IP-100,2013-02-28 11:45:00,
2013-02-28 03:50:00,28.9,29.0,25.74,SSW,202,0.0,0.0,99,0.00,,,0.00,Rainwise IP-100,2013-02-28 11:50:00,
2013-02-28 03:55:00,29.2,29.0,25.74,SE,135,1.6,2.8,99,0.00,,,0.00,Rainwise IP-100,2013-02-28 11:55:00,
2013-02-28 04:00:00,29.5,31.0,25.74,SE,135,1.9,2.8,98,0.00,,,0.00,Rainwise IP-100,2013-02-28 12:00:00,
2013-02-28 04:05:00,29.9,31.0,25.74,SE,135,3.3,4.2,98,0.00,,,0.00,Rainwise IP-100,2013-02-28 12:05:00,
2013-02-28 04:10:00,30.1,31.0,25.74,SE,135,3.3,4.4,98,0.00,,,0.00,Rainwise IP-100,2013-02-28 12:10:00,
2013-02-28 04:15:00,30.2,29.0,25.74,SE,135,2.6,4.9,97,0.00,,,0.00,Rainwise IP-100,2013-02-28 12:15:00,
2013-02-28 04:20:00,30.2,29.0,25.74,SE,135,1.9,4.0,97,0.00,,,0.00,Rainwise IP-100,2013-02-28 12:20:00,
2013-02-28 04:25:00,30.3,29.0,25.74,SE,135,1.9,3.5,96,0.00,,,0.00,Rainwise IP-100,2013-02-28 12:25:00,
2013-02-28 04:30:00,30.3,29.0,25.74,SE,135,1.6,3.5,96,0.00,,,0.00,Rainwise IP-100,2013-02-28 12:30:00,
2013-02-28 04:35:00,30.3,29.0,25.73,SE,135,3.3,3.7,97,0.00,,,0.00,Rainwise IP-100,2013-02-28 12:35:00,
2013-02-28 04:40:00,30.3,29.0,25.74,SE,135,4.0,4.7,97,0.00,,,0.00,Rainwise IP-100,2013-02-28 12:40:00,
2013-02-28 04:45:00,30.2,29.0,25.74,ESE,112,2.1,4.4,97,0.00,,,0.00,Rainwise IP-100,2013-02-28 12:45:00,
2013-02-28 04:50:00,30.2,29.0,25.74,SE,135,2.6,3.7,97,0.00,,,0.00,Rainwise IP-100,2013-02-28 12:50:00,
2013-02-28 04:55:00,30.2,29.0,25.74,ENE,67,1.2,3.7,97,0.00,,,0.00,Rainwise IP-100,2013-02-28 12:55:00,
2013-02-28 05:00:00,30.2,29.0,25.74,SE,135,0.0,5.1,97,0.00,,,0.00,Rainwise IP-100,2013-02-28 13:00:00,
2013-02-28 05:05:00,30.3,29.0,25.74,East,90,2.8,2.8,97,0.00,,,0.00,Rainwise IP-100,2013-02-28 13:05:00,
2013-02-28 05:10:00,30.4,29.0,25.74,SE,135,0.0,4.4,97,0.00,,,0.00,Rainwise IP-100,2013-02-28 13:10:00,
2013-02-28 05:15:00,30.5,29.0,25.74,SSE,157,0.0,0.0,97,0.00,,,0.00,Rainwise IP-100,2013-02-28 13:15:00,
2013-02-28 05:20:00,30.3,31.0,25.74,SE,135,1.9,1.9,98,0.00,,,0.00,Rainwise IP-100,2013-02-28 13:20:00,
2013-02-28 05:25:00,30.2,31.0,25.74,SE,135,0.0,3.5,98,0.00,,,0.00,Rainwise IP-100,2013-02-28 13:25:00,
2013-02-28 05:30:00,30.2,31.0,25.74,SE,135,0.0,2.1,98,0.00,,,0.00,Rainwise IP-100,2013-02-28 13:30:00,
2013-02-28 05:35:00,30.3,31.0,25.74,SE,135,1.6,2.8,98,0.00,,,0.00,Rainwise IP-100,2013-02-28 13:35:00,
2013-02-28 05:40:00,30.6,31.0,25.74,SE,135,0.0,2.3,99,0.00,,,0.00,Rainwise IP-100,2013-02-28 13:40:00,
2013-02-28 05:45:00,30.6,31.0,25.74,ESE,112,0.0,1.9,99,0.00,,,0.00,Rainwise IP-100,2013-02-28 13:45:00,
2013-02-28 05:50:00,30.7,31.0,25.74,SSE,157,0.0,0.0,99,0.00,,,0.00,Rainwise IP-100,2013-02-28 13:50:00,
2013-02-28 05:55:00,30.7,31.0,25.74,SE,135,1.9,3.3,99,0.00,,,0.00,Rainwise IP-100,2013-02-28 13:55:00,
2013-02-28 06:00:00,30.7,31.0,25.74,SE,135,0.0,1.9,99,0.00,,,0.00,Rainwise IP-100,2013-02-28 14:00:00,
2013-02-28 06:05:00,30.8,31.0,25.74,SE,135,0.0,2.6,99,0.00,,,0.00,Rainwise IP-100,2013-02-28 14:05:00,
2013-02-28 06:10:00,31.0,31.0,25.74,SE,135,2.1,3.0,100,0.00,,,0.00,Rainwise IP-100,2013-02-28 14:10:00,
2013-02-28 06:15:00,31.1,31.0,25.73,ESE,112,2.1,3.3,100,0.00,,,0.00,Rainwise IP-100,2013-02-28 14:15:00,
2013-02-28 06:20:00,31.4,31.0,25.74,SE,135,0.0,2.8,99,0.00,,,0.00,Rainwise IP-100,2013-02-28 14:20:00,
2013-02-28 06:25:00,31.5,32.0,25.74,ESE,112,1.2,1.6,99,0.00,,,0.00,Rainwise IP-100,2013-02-28 14:25:00,
2013-02-28 06:30:00,31.4,31.0,25.74,ESE,112,0.0,1.6,99,0.00,,,0.00,Rainwise IP-100,2013-02-28 14:30:00,
2013-02-28 06:35:00,31.4,31.0,25.74,ESE,112,0.0,0.0,99,0.00,,,0.00,Rainwise IP-100,2013-02-28 14:35:00,
2013-02-28 06:40:00,31.3,31.0,25.74,ESE,112,1.4,1.6,99,0.00,,,0.00,Rainwise IP-100,2013-02-28 14:40:00,
2013-02-28 06:45:00,31.5,32.0,25.75,SE,135,0.0,1.9,99,0.00,,,0.00,Rainwise IP-100,2013-02-28 14:45:00,
2013-02-28 06:50:00,31.8,32.0,25.75,SE,135,0.0,2.3,99,0.00,,,0.00,Rainwise IP-100,2013-02-28 14:50:00,
2013-02-28 06:55:00,31.8,32.0,25.75,SE,135,0.0,1.9,99,0.00,,,0.00,Rainwise IP-100,2013-02-28 14:55:00,
2013-02-28 07:00:00,31.8,32.0,25.75,SE,135,0.0,2.6,99,0.00,,,0.00,Rainwise IP-100,2013-02-28 15:00:00,
2013-02-28 07:05:00,31.9,32.0,25.75,SE,135,0.0,2.3,99,0.00,,,0.00,Rainwise IP-100,2013-02-28 15:05:00,
2013-02-28 07:10:00,31.9,32.0,25.75,SE,135,0.0,1.2,99,0.00,,,0.00,Rainwise IP-100,2013-02-28 15:10:00,
2013-02-28 07:15:00,31.9,32.0,25.75,SE,135,0.0,2.8,99,0.00,,,0.00,Rainwise IP-100,2013-02-28 15:15:00,
2013-02-28 07:20:00,31.9,32.0,25.75,SE,135,1.2,3.3,100,0.00,,,0.00,Rainwise IP-100,2013-02-28 15:20:00,
2013-02-28 07:25:00,32.0,32.0,25.75,SW,225,0.0,2.3,100,0.00,,,0.00,Rainwise IP-100,2013-02-28 15:25:00,
2013-02-28 07:30:00,32.2,32.0,25.74,SE,135,2.6,3.3,99,0.00,,,0.00,Rainwise IP-100,2013-02-28 15:30:00,
2013-02-28 07:35:00,32.4,32.0,25.75,SE,135,1.4,3.0,99,0.00,,,0.00,Rainwise IP-100,2013-02-28 15:35:00,
2013-02-28 07:40:00,32.6,33.0,25.75,SE,135,3.0,4.0,99,0.00,,,0.00,Rainwise IP-100,2013-02-28 15:40:00,
2013-02-28 07:45:00,32.8,33.0,25.75,SE,135,0.0,3.7,98,0.00,,,0.00,Rainwise IP-100,2013-02-28 15:45:00,
2013-02-28 07:50:00,32.9,33.0,25.75,SE,135,2.1,3.3,98,0.00,,,0.00,Rainwise IP-100,2013-02-28 15:50:00,
2013-02-28 07:55:00,33.2,32.0,25.75,South,180,1.2,4.2,97,0.00,,,0.00,Rainwise IP-100,2013-02-28 15:55:00,
2013-02-28 08:00:00,33.4,32.0,25.75,ESE,112,2.3,4.0,97,0.00,,,0.00,Rainwise IP-100,2013-02-28 16:00:00,
2013-02-28 08:05:00,33.5,33.0,25.75,ENE,67,0.0,3.5,97,0.00,,,0.00,Rainwise IP-100,2013-02-28 16:05:00,
2013-02-28 08:10:00,33.7,33.0,25.75,SE,135,2.1,4.2,97,0.00,,,0.00,Rainwise IP-100,2013-02-28 16:10:00,
2013-02-28 08:15:00,33.8,33.0,25.75,SE,135,2.1,3.5,96,0.00,,,0.00,Rainwise IP-100,2013-02-28 16:15:00,
2013-02-28 08:20:00,33.8,33.0,25.75,SE,135,0.0,3.7,96,0.00,,,0.00,Rainwise IP-100,2013-02-28 16:20:00,
2013-02-28 08:25:00,33.8,33.0,25.75,SE,135,0.0,4.0,96,0.00,,,0.00,Rainwise IP-100,2013-02-28 16:25:00,
2013-02-28 08:30:00,33.8,33.0,25.75,SE,135,1.6,3.5,96,0.00,,,0.00,Rainwise IP-100,2013-02-28 16:30:00,
2013-02-28 08:35:00,34.0,33.0,25.75,ESE,112,3.0,4.4,95,0.00,,,0.00,Rainwise IP-100,2013-02-28 16:35:00,
2013-02-28 08:40:00,34.2,33.0,25.75,SE,135,2.6,4.9,95,0.00,,,0.00,Rainwise IP-100,2013-02-28 16:40:00,
2013-02-28 08:45:00,34.3,33.0,25.75,SE,135,1.6,5.8,95,0.00,,,0.00,Rainwise IP-100,2013-02-28 16:45:00,
2013-02-28 08:50:00,34.5,33.0,25.75,NE,45,2.3,4.2,94,0.00,,,0.00,Rainwise IP-100,2013-02-28 16:50:00,
2013-02-28 08:55:00,34.7,33.0,25.76,SE,135,2.8,5.1,94,0.00,,,0.00,Rainwise IP-100,2013-02-28 16:55:00,
2013-02-28 09:00:00,34.8,33.0,25.76,SE,135,1.4,4.7,94,0.00,,,0.00,Rainwise IP-100,2013-02-28 17:00:00,
2013-02-28 09:05:00,34.8,33.0,25.76,SE,135,1.9,4.2,94,0.00,,,0.00,Rainwise IP-100,2013-02-28 17:05:00,
2013-02-28 09:10:00,34.8,33.0,25.76,East,90,0.0,6.5,94,0.00,,,0.00,Rainwise IP-100,2013-02-28 17:10:00,
2013-02-28 09:15:00,34.8,33.0,25.76,SE,135,1.4,3.3,94,0.00,,,0.00,Rainwise IP-100,2013-02-28 17:15:00,
2013-02-28 09:20:00,34.8,33.0,25.76,SE,135,1.2,3.0,95,0.00,,,0.00,Rainwise IP-100,2013-02-28 17:20:00,
2013-02-28 09:25:00,34.9,33.0,25.77,SSW,202,0.0,4.2,95,0.00,,,0.00,Rainwise IP-100,2013-02-28 17:25:00,
2013-02-28 09:30:00,35.1,33.0,25.76,SSE,157,0.0,4.0,95,0.00,,,0.00,Rainwise IP-100,2013-02-28 17:30:00,
2013-02-28 09:35:00,35.2,33.0,25.76,SSE,157,0.0,2.3,95,0.00,,,0.00,Rainwise IP-100,2013-02-28 17:35:00,
2013-02-28 09:40:00,35.0,33.0,25.77,NNW,337,0.0,5.6,94,0.00,,,0.00,Rainwise IP-100,2013-02-28 17:40:00,
2013-02-28 09:45:00,34.8,33.0,25.77,SE,135,1.2,2.8,95,0.00,,,0.00,Rainwise IP-100,2013-02-28 17:45:00,
2013-02-28 09:50:00,34.6,33.0,25.77,NNW,337,3.7,3.7,95,0.00,,,0.00,Rainwise IP-100,2013-02-28 17:50:00,
2013-02-28 09:55:00,34.3,33.0,25.77,NNW,337,0.0,4.2,95,0.00,,,0.00,Rainwise IP-100,2013-02-28 17:55:00,
2013-02-28 10:00:00,33.8,33.0,25.77,NW,315,0.0,4.2,96,0.00,,,0.00,Rainwise IP-100,2013-02-28 18:00:00,
2013-02-28 10:05:00,33.5,33.0,25.77,West,270,0.0,1.9,97,0.00,,,0.00,Rainwise IP-100,2013-02-28 18:05:00,
2013-02-28 10:10:00,33.4,32.0,25.78,West,270,0.0,0.0,97,0.00,,,0.00,Rainwise IP-100,2013-02-28 18:10:00,
2013-02-28 10:15:00,33.5,35.0,25.77,West,270,1.2,1.9,98,0.00,,,0.00,Rainwise IP-100,2013-02-28 18:15:00,
2013-02-28 10:20:00,33.6,35.0,25.78,NNW,337,0.0,2.8,98,0.00,,,0.00,Rainwise IP-100,2013-02-28 18:20:00,
2013-02-28 10:23:00,33.6,35.0,25.77,NNW,337,0.0,2.8,98,0.00,,,0.00,Rainwise IP-100,2013-02-28 18:23:00,
2013-02-28 10:28:00,33.7,35.0,25.78,NNW,337,0.0,5.1,98,0.00,,,0.00,Rainwise IP-100,2013-02-28 18:28:00,
2013-02-28 10:33:00,33.6,35.0,25.78,NNW,337,0.0,2.6,98,0.00,,,0.00,Rainwise IP-100,2013-02-28 18:33:00,
2013-02-28 10:38:00,33.6,35.0,25.77,North,360,1.2,4.4,98,0.00,,,0.00,Rainwise IP-100,2013-02-28 18:38:00,
2013-02-28 10:43:00,33.6,35.0,25.78,North,360,0.0,3.0,99,0.00,,,0.00,Rainwise IP-100,2013-02-28 18:43:00,
2013-02-28 10:48:00,33.6,35.0,25.78,NNW,337,4.7,5.8,99,0.00,,,0.00,Rainwise IP-100,2013-02-28 18:48:00,
2013-02-28 10:53:00,33.7,35.0,25.78,NNW,337,3.5,5.4,99,0.00,,,0.00,Rainwise IP-100,2013-02-28 18:53:00,
2013-02-28 10:54:00,33.7,35.0,25.78,NNW,337,3.3,4.9,99,0.00,,,0.00,Rainwise IP-100,2013-02-28 18:54:00,
2013-02-28 10:59:00,33.7,35.0,25.78,NW,315,0.0,3.5,99,0.00,,,0.00,Rainwise IP-100,2013-02-28 18:59:00,
2013-02-28 11:04:00,33.6,35.0,25.78,NNW,337,2.3,3.7,99,0.00,,,0.00,Rainwise IP-100,2013-02-28 19:04:00,
2013-02-28 11:09:00,33.7,35.0,25.78,NNW,337,2.3,4.0,99,0.00,,,0.00,Rainwise IP-100,2013-02-28 19:09:00,
2013-02-28 11:14:00,33.7,35.0,25.78,NNW,337,0.0,3.3,99,0.06,,,0.01,Rainwise IP-100,2013-02-28 19:14:00,
2013-02-28 11:19:00,33.8,35.0,25.78,NNW,337,0.0,1.9,99,0.06,,,0.01,Rainwise IP-100,2013-02-28 19:19:00,
2013-02-28 11:24:00,33.8,35.0,25.79,NNW,337,0.0,2.1,99,0.00,,,0.01,Rainwise IP-100,2013-02-28 19:24:00,
2013-02-28 11:29:00,33.9,35.0,25.79,NNW,337,1.9,3.0,99,0.42,,,0.08,Rainwise IP-100,2013-02-28 19:29:00,
2013-02-28 11:34:00,34.1,35.0,25.79,NNW,337,0.0,3.0,99,0.48,,,0.09,Rainwise IP-100,2013-02-28 19:34:00,
2013-02-28 11:39:00,34.1,35.0,25.79,NNW,337,0.0,2.1,99,0.12,,,0.10,Rainwise IP-100,2013-02-28 19:39:00,
2013-02-28 11:44:00,34.1,35.0,25.79,NNW,337,0.0,1.6,99,0.06,,,0.10,Rainwise IP-100,2013-02-28 19:44:00,
2013-02-28 11:49:00,34.2,35.0,25.79,NNW,337,0.0,0.0,99,0.00,,,0.10,Rainwise IP-100,2013-02-28 19:49:00,
2013-02-28 11:54:00,34.3,35.0,25.80,NNW,337,0.0,0.0,99,0.06,,,0.11,Rainwise IP-100,2013-02-28 19:54:00,
2013-02-28 11:59:00,34.3,35.0,25.80,NNW,337,0.0,0.0,99,0.12,,,0.12,Rainwise IP-100,2013-02-28 19:59:00,
2013-02-28 12:04:00,34.4,35.0,25.79,NNW,337,0.0,0.0,99,0.12,,,0.13,Rainwise IP-100,2013-02-28 20:04:00,
2013-02-28 12:09:00,34.5,35.0,25.79,NNW,337,0.0,0.0,99,0.12,,,0.14,Rainwise IP-100,2013-02-28 20:09:00,
2013-02-28 12:14:00,34.7,35.0,25.79,SSW,202,0.0,2.3,98,0.12,,,0.15,Rainwise IP-100,2013-02-28 20:14:00,
2013-02-28 12:19:00,34.9,35.0,25.80,SSW,202,0.0,2.1,98,0.06,,,0.15,Rainwise IP-100,2013-02-28 20:19:00,
2013-02-28 12:24:00,35.1,35.0,25.80,SSW,202,0.0,0.0,98,0.06,,,0.16,Rainwise IP-100,2013-02-28 20:24:00,
2013-02-28 12:29:00,35.4,35.0,25.80,WNW,292,1.9,0.0,98,0.12,,,0.17,Rainwise IP-100,2013-02-28 20:29:00,
2013-02-28 12:34:00,35.6,36.0,25.80,WNW,292,0.0,1.9,98,0.06,,,0.17,Rainwise IP-100,2013-02-28 20:34:00,
2013-02-28 12:39:00,35.6,35.0,25.80,WNW,292,0.0,1.9,97,0.06,,,0.18,Rainwise IP-100,2013-02-28 20:39:00,
2013-02-28 12:44:00,35.5,36.0,25.80,WNW,292,0.0,0.0,98,0.12,,,0.19,Rainwise IP-100,2013-02-28 20:44:00,
2013-02-28 12:49:00,35.4,35.0,25.80,WNW,292,0.0,0.0,98,0.12,,,0.20,Rainwise IP-100,2013-02-28 20:49:00,
2013-02-28 12:54:00,35.5,36.0,25.81,WNW,292,0.0,0.0,98,0.12,,,0.21,Rainwise IP-100,2013-02-28 20:54:00,
2013-02-28 12:59:00,35.6,35.0,25.81,WNW,292,0.0,0.0,97,0.06,,,0.21,Rainwise IP-100,2013-02-28 20:59:00,
2013-02-28 13:04:00,35.7,35.0,25.81,WNW,292,0.0,1.9,97,0.06,,,0.22,Rainwise IP-100,2013-02-28 21:04:00,
2013-02-28 13:09:00,35.7,36.0,25.80,WNW,292,0.0,0.0,98,0.12,,,0.23,Rainwise IP-100,2013-02-28 21:09:00,
2013-02-28 13:14:00,35.4,35.0,25.80,WNW,292,0.0,0.0,98,0.06,,,0.23,Rainwise IP-100,2013-02-28 21:14:00,
2013-02-28 13:19:00,35.4,35.0,25.80,WNW,292,0.0,0.0,98,0.06,,,0.24,Rainwise IP-100,2013-02-28 21:19:00,
2013-02-28 13:24:00,35.5,36.0,25.81,WNW,292,0.0,0.0,98,0.12,,,0.25,Rainwise IP-100,2013-02-28 21:24:00,
2013-02-28 13:29:00,35.6,36.0,25.80,WNW,292,0.0,0.0,98,0.12,,,0.26,Rainwise IP-100,2013-02-28 21:29:00,
2013-02-28 13:34:00,35.6,36.0,25.80,WNW,292,0.0,0.0,98,0.12,,,0.27,Rainwise IP-100,2013-02-28 21:34:00,
2013-02-28 13:39:00,35.7,36.0,25.80,WNW,292,0.0,0.0,98,0.12,,,0.28,Rainwise IP-100,2013-02-28 21:39:00,
2013-02-28 13:44:00,35.8,36.0,25.81,WNW,292,0.0,0.0,98,0.06,,,0.29,Rainwise IP-100,2013-02-28 21:44:00,
2013-02-28 13:49:00,35.9,36.0,25.81,WNW,292,0.0,0.0,98,0.06,,,0.29,Rainwise IP-100,2013-02-28 21:49:00,
2013-02-28 13:54:00,35.8,36.0,25.81,WNW,292,0.0,0.0,98,0.12,,,0.30,Rainwise IP-100,2013-02-28 21:54:00,
2013-02-28 13:59:00,35.8,36.0,25.81,WNW,292,0.0,0.0,98,0.12,,,0.31,Rainwise IP-100,2013-02-28 21:59:00,
2013-02-28 14:04:00,35.8,36.0,25.81,WNW,292,0.0,0.0,98,0.12,,,0.32,Rainwise IP-100,2013-02-28 22:04:00,
2013-02-28 14:09:00,35.5,36.0,25.81,WNW,292,0.0,0.0,98,0.12,,,0.33,Rainwise IP-100,2013-02-28 22:09:00,
2013-02-28 14:14:00,35.5,36.0,25.81,SSW,202,0.0,3.5,99,0.06,,,0.33,Rainwise IP-100,2013-02-28 22:14:00,
2013-02-28 14:19:00,35.7,36.0,25.81,ESE,112,0.0,1.9,99,0.06,,,0.34,Rainwise IP-100,2013-02-28 22:19:00,
2013-02-28 14:24:00,35.9,36.0,25.82,ESE,112,0.0,0.0,99,0.06,,,0.34,Rainwise IP-100,2013-02-28 22:24:00,
2013-02-28 14:29:00,36.2,36.0,25.81,ESE,112,0.0,1.2,99,0.06,,,0.35,Rainwise IP-100,2013-02-28 22:29:00,
2013-02-28 14:34:00,36.2,36.0,25.82,East,90,0.0,0.0,99,0.06,,,0.35,Rainwise IP-100,2013-02-28 22:34:00,
2013-02-28 14:39:00,36.3,36.0,25.82,East,90,0.0,0.0,99,0.06,,,0.36,Rainwise IP-100,2013-02-28 22:39:00,
2013-02-28 14:44:00,36.4,36.0,25.82,East,90,0.0,0.0,99,0.06,,,0.36,Rainwise IP-100,2013-02-28 22:44:00,
2013-02-28 14:49:00,36.4,36.0,25.82,East,90,0.0,0.0,99,0.06,,,0.37,Rainwise IP-100,2013-02-28 22:49:00,
2013-02-28 14:54:00,36.4,36.0,25.82,East,90,0.0,0.0,99,0.06,,,0.37,Rainwise IP-100,2013-02-28 22:54:00,
2013-02-28 14:59:00,36.3,36.0,25.82,South,180,1.2,3.7,99,0.06,,,0.38,Rainwise IP-100,2013-02-28 22:59:00,
2013-02-28 15:04:00,36.1,36.0,25.82,SE,135,0.0,2.1,99,0.06,,,0.39,Rainwise IP-100,2013-02-28 23:04:00,
2013-02-28 15:09:00,35.9,36.0,25.82,ESE,112,0.0,1.9,99,0.06,,,0.39,Rainwise IP-100,2013-02-28 23:09:00,
2013-02-28 15:14:00,36.0,36.0,25.83,ESE,112,0.0,0.0,99,0.06,,,0.39,Rainwise IP-100,2013-02-28 23:14:00,
2013-02-28 15:19:00,36.1,36.0,25.83,East,90,0.0,0.0,99,0.00,,,0.39,Rainwise IP-100,2013-02-28 23:19:00,
2013-02-28 15:24:00,36.2,36.0,25.83,West,270,1.4,2.1,99,0.06,,,0.40,Rainwise IP-100,2013-02-28 23:24:00,
2013-02-28 15:29:00,36.0,36.0,25.83,WSW,247,0.0,1.6,99,0.12,,,0.41,Rainwise IP-100,2013-02-28 23:29:00,
2013-02-28 15:34:00,35.6,36.0,25.83,WSW,247,0.0,0.0,99,0.06,,,0.41,Rainwise IP-100,2013-02-28 23:34:00,
2013-02-28 15:39:00,35.7,36.0,25.84,SW,225,0.0,0.0,99,0.06,,,0.42,Rainwise IP-100,2013-02-28 23:39:00,
2013-02-28 15:44:00,35.7,36.0,25.84,SE,135,0.0,3.3,99,0.06,,,0.42,Rainwise IP-100,2013-02-28 23:44:00,
2013-02-28 15:49:00,35.6,36.0,25.84,SE,135,0.0,0.0,99,0.00,,,0.42,Rainwise IP-100,2013-02-28 23:49:00,
2013-02-28 15:54:00,35.6,36.0,25.84,SE,135,2.3,2.3,100,0.06,,,0.43,Rainwise IP-100,2013-02-28 23:54:00,
2013-02-28 15:59:00,35.5,36.0,25.84,SE,135,0.0,2.3,100,0.06,,,0.43,Rainwise IP-100,2013-02-28 23:59:00,
2013-02-28 16:04:00,35.6,36.0,25.84,SE,135,0.0,0.0,100,0.06,,,0.44,Rainwise IP-100,2013-03-01 00:04:00,
2013-02-28 16:09:00,35.5,36.0,25.83,SE,135,1.9,2.3,100,0.12,,,0.45,Rainwise IP-100,2013-03-01 00:09:00,
2013-02-28 16:14:00,35.3,35.0,25.84,ESE,112,0.0,2.1,100,0.06,,,0.45,Rainwise IP-100,2013-03-01 00:14:00,
2013-02-28 16:19:00,35.2,35.0,25.84,ESE,112,0.0,1.2,100,0.00,,,0.46,Rainwise IP-100,2013-03-01 00:19:00,
2013-02-28 16:24:00,35.0,35.0,25.84,ESE,112,0.0,0.0,100,0.06,,,0.46,Rainwise IP-100,2013-03-01 00:24:00,
2013-02-28 16:29:00,35.1,35.0,25.84,ESE,112,0.0,1.2,100,0.12,,,0.47,Rainwise IP-100,2013-03-01 00:29:00,
2013-02-28 16:34:00,35.2,35.0,25.84,ESE,112,1.2,1.2,100,0.06,,,0.47,Rainwise IP-100,2013-03-01 00:34:00,
2013-02-28 16:39:00,35.1,35.0,25.83,ESE,112,0.0,2.1,100,0.06,,,0.48,Rainwise IP-100,2013-03-01 00:39:00,
2013-02-28 16:44:00,35.0,35.0,25.84,ESE,112,1.4,1.9,100,0.06,,,0.48,Rainwise IP-100,2013-03-01 00:44:00,
2013-02-28 16:49:00,35.2,35.0,25.84,ESE,112,0.0,2.3,100,0.00,,,0.48,Rainwise IP-100,2013-03-01 00:49:00,
2013-02-28 16:54:00,35.2,35.0,25.84,ESE,112,0.0,1.2,100,0.06,,,0.49,Rainwise IP-100,2013-03-01 00:54:00,
2013-02-28 16:59:00,34.9,35.0,25.84,ESE,112,1.4,1.6,100,0.06,,,0.49,Rainwise IP-100,2013-03-01 00:59:00,
2013-02-28 17:04:00,34.9,35.0,25.84,ESE,112,0.0,1.6,100,0.00,,,0.49,Rainwise IP-100,2013-03-01 01:04:00,
2013-02-28 17:09:00,34.8,35.0,25.84,ESE,112,0.0,1.9,100,0.00,,,0.49,Rainwise IP-100,2013-03-01 01:09:00,
2013-02-28 17:14:00,34.7,35.0,25.84,ESE,112,2.6,2.6,100,0.06,,,0.50,Rainwise IP-100,2013-03-01 01:14:00,
2013-02-28 17:19:00,34.8,35.0,25.84,SE,135,1.6,3.0,100,0.06,,,0.50,Rainwise IP-100,2013-03-01 01:19:00,
2013-02-28 17:24:00,35.1,35.0,25.84,SE,135,0.0,1.9,100,0.00,,,0.50,Rainwise IP-100,2013-03-01 01:24:00,
2013-02-28 17:29:00,35.2,35.0,25.84,SE,135,1.6,1.6,100,0.06,,,0.51,Rainwise IP-100,2013-03-01 01:29:00,
2013-02-28 17:34:00,34.9,35.0,25.84,SE,135,0.0,1.6,100,0.06,,,0.51,Rainwise IP-100,2013-03-01 01:34:00,
2013-02-28 17:39:00,34.6,35.0,25.85,SE,135,0.0,1.2,100,0.00,,,0.51,Rainwise IP-100,2013-03-01 01:39:00,
2013-02-28 17:44:00,34.7,35.0,25.84,SE,135,1.4,1.4,100,0.00,,,0.51,Rainwise IP-100,2013-03-01 01:44:00,
2013-02-28 17:49:00,34.7,35.0,25.84,ESE,112,1.4,3.7,100,0.00,,,0.51,Rainwise IP-100,2013-03-01 01:49:00,
2013-02-28 17:54:00,34.7,35.0,25.84,SSW,202,0.0,2.1,100,0.00,,,0.51,Rainwise IP-100,2013-03-01 01:54:00,
2013-02-28 17:59:00,34.8,35.0,25.84,SSW,202,0.0,0.0,100,0.00,,,0.51,Rainwise IP-100,2013-03-01 01:59:00,
2013-02-28 18:04:00,34.6,35.0,25.84,SSE,157,0.0,1.6,100,0.00,,,0.52,Rainwise IP-100,2013-03-01 02:04:00,
2013-02-28 18:09:00,34.5,35.0,25.83,SE,135,0.0,1.6,100,0.06,,,0.52,Rainwise IP-100,2013-03-01 02:09:00,
2013-02-28 18:14:00,34.5,35.0,25.84,ESE,112,0.0,2.6,100,0.06,,,0.52,Rainwise IP-100,2013-03-01 02:14:00,
2013-02-28 18:15:00,34.5,35.0,25.83,ESE,112,1.6,2.6,100,0.00,,,0.52,Rainwise IP-100,2013-03-01 02:15:00,
2013-02-28 18:20:00,34.5,35.0,25.84,ESE,112,0.0,1.9,100,0.00,,,0.52,Rainwise IP-100,2013-03-01 02:20:00,
2013-02-28 18:25:00,34.5,35.0,25.84,ESE,112,0.0,1.6,100,0.00,,,0.52,Rainwise IP-100,2013-03-01 02:25:00,
2013-02-28 18:30:00,34.6,35.0,25.84,East,90,0.0,1.2,100,0.00,,,0.52,Rainwise IP-100,2013-03-01 02:30:00,
2013-02-28 18:35:00,34.7,35.0,25.84,East,90,0.0,1.2,100,0.00,,,0.52,Rainwise IP-100,2013-03-01 02:35:00,
2013-02-28 18:40:00,34.7,35.0,25.84,ESE,112,0.0,1.2,100,0.06,,,0.53,Rainwise IP-100,2013-03-01 02:40:00,
2013-02-28 18:45:00,34.8,35.0,25.85,ESE,112,0.0,0.0,100,0.06,,,0.53,Rainwise IP-100,2013-03-01 02:45:00,
2013-02-28 18:50:00,34.9,35.0,25.85,ESE,112,0.0,0.0,100,0.00,,,0.53,Rainwise IP-100,2013-03-01 02:50:00,
2013-02-28 18:55:00,34.7,35.0,25.85,ESE,112,0.0,0.0,100,0.00,,,0.53,Rainwise IP-100,2013-03-01 02:55:00,
2013-02-28 19:00:00,34.6,35.0,25.86,ESE,112,0.0,1.4,100,0.00,,,0.53,Rainwise IP-100,2013-03-01 03:00:00,
2013-02-28 19:05:00,34.5,35.0,25.86,SE,135,0.0,2.6,100,0.06,,,0.54,Rainwise IP-100,2013-03-01 03:05:00,
2013-02-28 19:10:00,34.6,35.0,25.86,SSW,202,0.0,2.6,100,0.06,,,0.54,Rainwise IP-100,2013-03-01 03:10:00,
2013-02-28 19:15:00,34.6,35.0,25.86,SSW,202,0.0,0.0,100,0.00,,,0.54,Rainwise IP-100,2013-03-01 03:15:00,
2013-02-28 19:20:00,34.5,35.0,25.86,SSW,202,0.0,0.0,100,0.06,,,0.55,Rainwise IP-100,2013-03-01 03:20:00,
2013-02-28 19:25:00,34.5,35.0,25.86,SSW,202,0.0,0.0,100,0.06,,,0.55,Rainwise IP-100,2013-03-01 03:25:00,
2013-02-28 19:30:00,34.5,35.0,25.86,SSW,202,0.0,0.0,100,0.06,,,0.56,Rainwise IP-100,2013-03-01 03:30:00,
2013-02-28 19:35:00,34.4,35.0,25.86,SSW,202,0.0,0.0,100,0.06,,,0.56,Rainwise IP-100,2013-03-01 03:35:00,
2013-02-28 19:40:00,34.4,35.0,25.86,SSW,202,0.0,0.0,100,0.00,,,0.56,Rainwise IP-100,2013-03-01 03:40:00,
2013-02-28 19:45:00,34.5,35.0,25.86,SSW,202,0.0,0.0,100,0.00,,,0.56,Rainwise IP-100,2013-03-01 03:45:00,
2013-02-28 19:50:00,34.6,35.0,25.86,SSW,202,0.0,0.0,100,0.06,,,0.57,Rainwise IP-100,2013-03-01 03:50:00,
2013-02-28 19:55:00,34.6,35.0,25.87,SSW,202,0.0,0.0,100,0.06,,,0.57,Rainwise IP-100,2013-03-01 03:55:00,
2013-02-28 20:00:00,34.6,35.0,25.87,SSW,202,0.0,0.0,100,0.00,,,0.57,Rainwise IP-100,2013-03-01 04:00:00,
2013-02-28 20:05:00,34.5,35.0,25.87,SE,135,0.0,2.1,100,0.06,,,0.58,Rainwise IP-100,2013-03-01 04:05:00,
2013-02-28 20:10:00,34.5,35.0,25.87,ESE,112,1.2,2.8,100,0.06,,,0.58,Rainwise IP-100,2013-03-01 04:10:00,
2013-02-28 20:15:00,34.6,35.0,25.87,ESE,112,0.0,1.4,100,0.06,,,0.59,Rainwise IP-100,2013-03-01 04:15:00,
2013-02-28 20:20:00,34.7,35.0,25.87,ESE,112,1.2,1.2,100,0.06,,,0.59,Rainwise IP-100,2013-03-01 04:20:00,
2013-02-28 20:25:00,34.5,35.0,25.87,ESE,112,0.0,1.4,100,0.00,,,0.59,Rainwise IP-100,2013-03-01 04:25:00,
2013-02-28 20:30:00,34.3,35.0,25.88,ESE,112,1.4,0.0,100,0.00,,,0.60,Rainwise IP-100,2013-03-01 04:30:00,
2013-02-28 20:35:00,34.4,35.0,25.87,ESE,112,0.0,2.8,100,0.06,,,0.60,Rainwise IP-100,2013-03-01 04:35:00,
2013-02-28 20:40:00,34.5,35.0,25.87,ESE,112,0.0,0.0,100,0.06,,,0.60,Rainwise IP-100,2013-03-01 04:40:00,
2013-02-28 20:45:00,34.5,35.0,25.87,ESE,112,0.0,0.0,100,0.00,,,0.60,Rainwise IP-100,2013-03-01 04:45:00,
2013-02-28 20:50:00,34.2,35.0,25.87,ESE,112,0.0,0.0,100,0.00,,,0.60,Rainwise IP-100,2013-03-01 04:50:00,
2013-02-28 20:55:00,34.0,35.0,25.87,ESE,112,0.0,1.4,100,0.00,,,0.60,Rainwise IP-100,2013-03-01 04:55:00,
2013-02-28 21:00:00,33.9,35.0,25.87,ESE,112,0.0,1.2,100,0.00,,,0.60,Rainwise IP-100,2013-03-01 05:00:00,
2013-02-28 21:05:00,33.9,35.0,25.87,ESE,112,0.0,1.2,100,0.06,,,0.61,Rainwise IP-100,2013-03-01 05:05:00,
2013-02-28 21:10:00,34.3,35.0,25.88,ESE,112,0.0,0.0,100,0.06,,,0.61,Rainwise IP-100,2013-03-01 05:10:00,
2013-02-28 21:15:00,34.4,35.0,25.87,ESE,112,0.0,1.2,100,0.00,,,0.61,Rainwise IP-100,2013-03-01 05:15:00,
2013-02-28 21:20:00,34.4,35.0,25.88,ESE,112,0.0,0.0,100,0.06,,,0.62,Rainwise IP-100,2013-03-01 05:20:00,
2013-02-28 21:44:00,34.0,35.0,25.88,ESE,112,1.9,0.0,100,0.00,,,0.63,Rainwise IP-100,2013-03-01 05:44:00,
2013-02-28 21:48:00,33.9,35.0,25.88,ESE,112,0.0,1.9,100,0.06,,,0.64,Rainwise IP-100,2013-03-01 05:48:00,
2013-02-28 21:53:00,34.0,35.0,25.88,ESE,112,0.0,0.0,100,0.12,,,0.64,Rainwise IP-100,2013-03-01 05:53:00,
2013-02-28 21:58:00,34.1,35.0,25.89,ESE,112,0.0,0.0,100,0.06,,,0.64,Rainwise IP-100,2013-03-01 05:58:00,
2013-02-28 22:00:00,34.1,35.0,25.89,ESE,112,0.0,0.0,100,0.06,,,0.64,Rainwise IP-100,2013-03-01 06:00:00,
2013-02-28 22:05:00,34.1,35.0,25.89,ESE,112,0.0,1.4,100,0.00,,,0.64,Rainwise IP-100,2013-03-01 06:05:00,
2013-02-28 22:10:00,34.2,35.0,25.88,ESE,112,0.0,1.6,100,0.00,,,0.64,Rainwise IP-100,2013-03-01 06:10:00,
2013-02-28 22:15:00,34.1,35.0,25.88,ESE,112,0.0,1.6,100,0.00,,,0.64,Rainwise IP-100,2013-03-01 06:15:00,
2013-02-28 22:20:00,34.2,35.0,25.89,ESE,112,0.0,1.6,100,0.06,,,0.65,Rainwise IP-100,2013-03-01 06:20:00,
2013-02-28 22:25:00,34.3,35.0,25.89,ESE,112,0.0,0.0,100,0.06,,,0.65,Rainwise IP-100,2013-03-01 06:25:00,
2013-02-28 22:30:00,34.3,35.0,25.89,ESE,112,0.0,0.0,100,0.00,,,0.65,Rainwise IP-100,2013-03-01 06:30:00,
2013-02-28 22:35:00,34.1,35.0,25.89,ESE,112,2.3,2.3,100,0.00,,,0.65,Rainwise IP-100,2013-03-01 06:35:00,
2013-02-28 22:40:00,34.2,35.0,25.89,ESE,112,1.2,2.6,100,0.00,,,0.65,Rainwise IP-100,2013-03-01 06:40:00,
2013-02-28 22:45:00,34.4,35.0,25.89,ESE,112,2.1,2.1,100,0.00,,,0.66,Rainwise IP-100,2013-03-01 06:45:00,
2013-02-28 22:50:00,34.3,35.0,25.90,ESE,112,0.0,2.3,100,0.06,,,0.66,Rainwise IP-100,2013-03-01 06:50:00,
2013-02-28 22:55:00,34.2,35.0,25.89,ESE,112,0.0,1.2,100,0.06,,,0.66,Rainwise IP-100,2013-03-01 06:55:00,
2013-02-28 23:00:00,34.4,35.0,25.90,ESE,112,0.0,0.0,100,0.00,,,0.66,Rainwise IP-100,2013-03-01 07:00:00,
2013-02-28 23:05:00,34.5,35.0,25.90,ESE,112,0.0,0.0,100,0.00,,,0.66,Rainwise IP-100,2013-03-01 07:05:00,
2013-02-28 23:10:00,34.3,35.0,25.89,ESE,112,1.2,1.4,100,0.00,,,0.66,Rainwise IP-100,2013-03-01 07:10:00,
2013-02-28 23:15:00,34.3,35.0,25.89,ESE,112,0.0,2.1,100,0.00,,,0.66,Rainwise IP-100,2013-03-01 07:15:00,
2013-02-28 23:20:00,34.2,35.0,25.90,ESE,112,0.0,1.9,100,0.00,,,0.66,Rainwise IP-100,2013-03-01 07:20:00,
2013-02-28 23:25:00,34.1,35.0,25.89,ESE,112,0.0,0.0,100,0.00,,,0.66,Rainwise IP-100,2013-03-01 07:25:00,
2013-02-28 23:30:00,34.0,35.0,25.90,ESE,112,0.0,1.6,100,0.00,,,0.66,Rainwise IP-100,2013-03-01 07:30:00,
2013-02-28 23:35:00,34.0,35.0,25.89,ESE,112,0.0,1.4,100,0.00,,,0.66,Rainwise IP-100,2013-03-01 07:35:00,
2013-02-28 23:40:00,33.9,35.0,25.90,ESE,112,0.0,1.9,100,0.00,,,0.66,Rainwise IP-100,2013-03-01 07:40:00,
2013-02-28 23:45:00,33.8,35.0,25.91,ESE,112,0.0,2.6,100,0.00,,,0.66,Rainwise IP-100,2013-03-01 07:45:00,
2013-02-28 23:50:00,33.7,35.0,25.90,ESE,112,0.0,1.4,100,0.00,,,0.66,Rainwise IP-100,2013-03-01 07:50:00,
2013-02-28 23:55:00,33.6,35.0,25.90,ESE,112,0.0,0.0,100,0.00,,,0.66,Rainwise IP-100,2013-03-01 07:55:00,